Weather History for Springfield, OH

Change the Weather History Date:

Sunday, February 17, 2013

  Actual Average (KDAY) Record (KDAY)
Temperature  
Mean Temperature 18 °F 31 °F  
Max Temperature 25 °F 39 °F 70 °F (1911)
Min Temperature 10 °F 23 °F -11 °F (1979)
Degree Days  
Heating Degree Days 48 34  
Month to date heating degree days 601  
Since 1 July heating degree days 3924  
Cooling Degree Days 0 0  
Month to date cooling degree days 0  
Year to date cooling degree days 0  
Moisture  
Dew Point 7 °F    
Average Humidity 68    
Maximum Humidity 79    
Minimum Humidity 44    
Precipitation  
Precipitation 0.00 in 0.08 in 0.95 in (1910)
Month to date precipitation 1.36  
Year to date precipitation 4.07  
Snow  
Snow 0.00 in 0.20 in 10.50 in (1910)
Month to date snowfall 3.7  
Since 1 July snowfall 17.1  
Snow Depth -    
Sea Level Pressure  
Sea Level Pressure 30.22 in    
Wind  
Wind Speed 8 mph (West)    
Max Wind Speed 12 mph    
Max Gust Speed -    
Visibility 8 miles    
Events Snow    
T = Trace of Precipitation, MM = Missing Value Source: NWS Daily Summary

Daily Weather History Graph

Daily Weather History Graph

Search for Another Location

Airport:

Trip Planner

Search our weather history database for the weather conditions in past years. The results will help you decide how hot, cold, wet, or windy it might be!

Date:

Astronomy

Feb. 17, 2013 Rise Set
Actual Time 7:25 AM EST 6:14 PM EST
Civil Twilight 6:57 AM EST 6:41 PM EST
Nautical Twilight 6:25 AM EST 7:13 PM EST
Astronomical Twilight 5:54 AM EST 7:44 PM EST
Moon 11:18 AM EST (2/17) 1:08 AM EST (2/17)
Length of Visible Light 11h 44m
Length of Day
10h 49m
Waxing Crescent, 49% of the Moon is Illuminated
Feb 17
Waxing Crescent
Feb 17
First Quarter
Feb 25
Full
Mar 4
Last Quarter
Mar 11
New

Hourly Weather History & Observations

Time (EST) Temp. Windchill Dew Point Humidity Pressure Visibility Wind Dir Wind Speed Gust Speed Precip Events Conditions
12:56 AM 12.0 °F 0.5 °F 3.0 °F 67% 30.14 in 9.0 mi WNW 8.1 mph - N/A   Clear
1:56 AM 12.0 °F 1.5 °F 4.1 °F 71% 30.14 in 9.0 mi WNW 6.9 mph - N/A   Clear
2:56 AM 12.0 °F 0.5 °F 4.1 °F 71% 30.14 in 9.0 mi WNW 8.1 mph - N/A   Clear
3:56 AM 11.1 °F -0.6 °F 5.0 °F 76% 30.14 in 9.0 mi WNW 8.1 mph - N/A   Clear
4:56 AM 10.0 °F -0.9 °F 4.1 °F 77% 30.16 in 8.0 mi West 6.9 mph - N/A   Clear
5:56 AM 10.0 °F -0.9 °F 4.1 °F 77% 30.18 in 9.0 mi West 6.9 mph - N/A   Clear
6:56 AM 10.0 °F -1.9 °F 4.1 °F 77% 30.20 in 8.0 mi West 8.1 mph - N/A   Clear
7:35 AM 10.4 °F -1.5 °F 5.0 °F 79% 30.15 in 7.0 mi West 8.1 mph - N/A   Mostly Cloudy
7:56 AM 12.0 °F -0.4 °F 6.1 °F 77% 30.22 in 6.0 mi WNW 9.2 mph - 0.00 in Snow Light Snow
8:29 AM 12.2 °F 1.7 °F 6.8 °F 79% 30.17 in 6.0 mi WNW 6.9 mph - 0.00 in   Haze
8:36 AM 12.2 °F 0.7 °F 6.8 °F 79% 30.17 in 7.0 mi WNW 8.1 mph - 0.00 in   Scattered Clouds
8:56 AM 14.0 °F 0.5 °F 7.2 °F 74% 30.24 in 7.0 mi WNW 11.5 mph - 0.00 in   Scattered Clouds
9:08 AM 14.0 °F 2.0 °F 6.8 °F 73% 30.18 in 7.0 mi WNW 9.2 mph - N/A   Mostly Cloudy
9:56 AM 15.1 °F 3.3 °F 8.1 °F 74% 30.25 in 6.0 mi West 9.2 mph - 0.00 in   Haze
10:56 AM 17.1 °F 5.0 °F 9.1 °F 71% 30.27 in 7.0 mi WNW 10.4 mph - 0.00 in   Mostly Cloudy
11:35 AM 17.6 °F 8.2 °F 10.4 °F 73% 30.22 in 8.0 mi West 6.9 mph - N/A   Scattered Clouds
11:56 AM 19.0 °F 12.3 °F 10.0 °F 68% 30.27 in 7.0 mi West 4.6 mph - N/A   Scattered Clouds
12:04 PM 19.4 °F 11.5 °F 10.4 °F 68% 30.21 in 7.0 mi WNW 5.8 mph - N/A   Mostly Cloudy
12:17 PM 19.4 °F 8.6 °F 8.6 °F 63% 30.21 in 8.0 mi WNW 9.2 mph - N/A   Scattered Clouds
12:56 PM 21.0 °F 9.3 °F 8.1 °F 57% 30.26 in 8.0 mi NNW 11.5 mph - N/A   Mostly Cloudy
1:56 PM 22.1 °F 12.0 °F 6.1 °F 50% 30.25 in 8.0 mi NW 9.2 mph - N/A   Mostly Cloudy
2:56 PM 23.0 °F 13.9 °F 6.1 °F 48% 30.24 in 8.0 mi West 8.1 mph - N/A   Mostly Cloudy
3:56 PM 25.2 °F 15.7 °F 6.1 °F 44% 30.24 in 8.0 mi WNW 9.2 mph - N/A   Mostly Cloudy
4:56 PM 25.2 °F 16.5 °F 7.2 °F 46% 30.24 in 9.0 mi WSW 8.1 mph - N/A   Partly Cloudy
5:56 PM 23.0 °F 13.9 °F 8.1 °F 53% 30.25 in 8.0 mi West 8.1 mph - N/A   Clear
6:56 PM 19.0 °F 13.9 °F 8.1 °F 62% 30.26 in 9.0 mi WSW 3.5 mph - N/A   Clear
7:56 PM 20.1 °F - 6.1 °F 55% 30.26 in 10.0 mi Calm Calm - N/A   Clear
8:56 PM 16.2 °F 9.0 °F 9.1 °F 74% 30.25 in 9.0 mi SE 4.6 mph - N/A   Clear
9:56 PM 14.0 °F 5.1 °F 8.1 °F 77% 30.27 in 9.0 mi SE 5.8 mph - N/A   Clear
10:56 PM 15.1 °F 6.4 °F 7.2 °F 71% 30.27 in 9.0 mi SE 5.8 mph - N/A   Clear
11:56 PM 15.1 °F 5.2 °F 8.1 °F 74% 30.27 in 9.0 mi SE 6.9 mph - N/A   Clear